Flag for France Weather past 2 weeks in Dijon, France

Now
82 °F

Warm.


Feels Like: 84 °F
Forecast: 60 / 88 °F
Wind: 3 mph from North

Location: Dijon Airport

Current Time: Jul 5, 2015 at 9:48:27 AM

Latest Report: Jul 5, 2015 at 9:30 AM


Visibility: N/A

Pressure: 30.07 "Hg

Humidity: 55%

Dew point: 64 °F

Location of DijonLocation

Historic Weather in Dijon — Graph

°F

Dijon temperature yesterday

Maximum temperature yesterday: 99 °F (at 3:30 PM)
Minimum temperature yesterday: 68 °F (at 6:30 AM)
Average temperature yesterday: 83 °F

Past Weeks' High & Low Weather Summary

 TemperatureHumidityPressure
High99 °F (Jul 3, 5:30 PM)88% (Jun 21, 3:30 AM)30.21 "Hg (Jun 21, 3:30 AM)
Low48 °F (Jun 24, 4:30 AM)24% (Jun 30, 5:00 PM)29.80 "Hg (Jun 22, 7:30 PM)
Average73 °F53%30.11 "Hg
* Reported Jun 20 8:00 AM — Jul 5 8:30 AM, Dijon, Weather by CustomWeather, © 2015

Note: Actual official high and low records may vary slightly from our data, if they occured in-between our weather recording intervals... More about our weather records

Advertising

Dijon weather history for previous 24 hours

 ConditionsComfort  
Time TempWeatherWind HumidityBarometerVisibility
8:30 AM
Sun, Jul 5
77 °FSunny.2 mph65%30.04 "Hg10 mi
8:00 AM75 °FSunny.2 mph69%30.07 "Hg10 mi
7:30 AM73 °FSunny.No wind74%30.07 "Hg10 mi
7:00 AM72 °FSunny.2 mph78%30.07 "Hg10 mi
6:30 AM68 °FClear.1 mph83%30.07 "Hg10 mi
5:30 AM68 °FClear.No wind78%30.07 "Hg10 mi
5:00 AM68 °FClear.No wind78%30.07 "Hg10 mi
4:30 AM70 °FClear.2 mph73%30.07 "Hg10 mi
4:00 AM70 °FClear.No wind73%30.07 "Hg10 mi
3:30 AM72 °FClear.2 mph69%30.09 "Hg10 mi
3:00 AM73 °FClear.3 mph69%30.09 "Hg10 mi
2:30 AM75 °FClear.2 mph65%30.09 "Hg10 mi
2:00 AM75 °FClear.3 mph61%30.09 "Hg10 mi
1:30 AM75 °FClear.6 mph61%30.09 "Hg10 mi
1:00 AM77 °FClear.6 mph57%30.09 "Hg10 mi
12:30 AM79 °FClear.5 mph54%30.09 "Hg10 mi
12:00 AM79 °FClear.5 mph54%30.09 "Hg10 mi
11:30 PM
Sat, Jul 4
81 °FClear.3 mph54%30.12 "Hg10 mi
11:00 PM81 °FClear.6 mph54%30.09 "Hg10 mi
10:30 PM82 °FSunny.6 mph51%30.09 "Hg10 mi
10:00 PM82 °FSunny.2 mph51%30.09 "Hg10 mi
9:30 PM84 °FSunny.5 mph45%30.09 "Hg10 mi
9:00 PM88 °FSunny.6 mph38%30.09 "Hg10 mi
8:30 PM91 °FSunny.3 mph32%30.09 "Hg10 mi
8:00 PM93 °FPassing clouds.6 mph32%30.09 "HgN/A
7:30 PM93 °FPassing clouds.9 mph32%30.09 "HgN/A
7:00 PM93 °FExtremely hot.14 mph34%30.09 "HgN/A
6:30 PM93 °FExtremely hot.9 mph32%30.09 "HgN/A
6:00 PM90 °FLight rain. Mostly cloudy.13 mph36%30.09 "HgN/A
5:30 PM91 °FHot.23 mph32%30.12 "HgN/A
5:00 PM99 °FPassing clouds.14 mph25%30.12 "HgN/A
4:30 PM99 °FPassing clouds.7 mph25%30.12 "HgN/A
4:00 PM99 °FExtremely hot.9 mph25%30.12 "HgN/A
3:30 PM99 °FPassing clouds.7 mph27%30.12 "HgN/A
3:00 PM97 °FPassing clouds.8 mph28%30.12 "HgN/A
2:30 PM97 °FSunny.7 mph27%30.12 "Hg10 mi
2:00 PM95 °FPassing clouds.7 mph28%30.12 "HgN/A
1:30 PM93 °FPassing clouds.9 mph30%30.12 "HgN/A
1:00 PM93 °FExtremely hot.8 mph32%30.15 "HgN/A
12:30 PM91 °FPassing clouds.9 mph34%30.15 "HgN/A
12:00 PM90 °FPassing clouds.8 mph33%30.15 "HgN/A
11:30 AM88 °FPassing clouds.10 mph38%30.15 "HgN/A
11:00 AM86 °FSunny.12 mph38%30.15 "Hg10 mi
10:30 AM84 °FSunny.12 mph40%30.15 "Hg10 mi
10:00 AM82 °FSunny.9 mph42%30.15 "Hg10 mi
9:30 AM81 °FPassing clouds.10 mph45%30.15 "HgN/A
9:00 AM79 °FSunny.12 mph48%30.15 "Hg10 mi
Weather by CustomWeather, © 2015

See weather overviewHow to use our weather pages